Tracking 30074 objects as of 13-Jan-2025
HD Live streaming from Space Station
objects crossing your sky now

FENGYUN 1C DEB

Track FENGYUN 1C DEB now!
10-day predictions


NORAD ID: 30679
Int'l Code: 1999-025AQM
Perigee: 847.7 km
Apogee: 1,101.1 km
Inclination: 99.4 °
Period: 104.4 minutes
Semi major axis: 7345 km
RCS: 0.0204 m2 (small)
Launch date: May 10, 1999
Source: People's Republic of China (PRC)
Launch site: Taiyaun Space Center, China (TSC)

Note: This is SATELLITE DEBRIS
Your satellite tracking list
Your tracking list is empty




NASA's NSSDC Master Catalog

Two Line Element Set (TLE):
1 30679U 99025AQM 25005.95326471  .00001988  00000-0  17811-2 0  9995
2 30679  99.4194  60.1672 0172513 256.8611 228.3785 13.79047595898216
Source of the keplerian elements: AFSPC